Location: Newark
(49.8348°N, 24.0280°E)
Time: 00:05:15
(UTC+00:00)

S-56A Canister/Altair - Pass Details

Date: 26 January 2020
Orbit: 633 x 2499 km, 38.9° (Epoch: 20 February)

Event Time Altitude Azimuth Distance (km) Brightness Sun altitude
Rises 22:16:17 0° 258° (WSW) 3,159 - -58.6°
Reaches altitude 10° 22:19:46 10° 235° (SW) 2,081 - -58.7°
Maximum altitude 22:22:18 15° 201° (SSW) 1,734 - -58.7°
Drops below altitude 10° 22:24:45 10° 167° (SSE) 2,005 - -58.7°
Sets 22:28:00 0° 142° (SE) 2,969 - -58.8°
